Regional Weather Roundup
Issued by NWS Northern Indiana

Home | Current Version | Previous Version | Graphics & Text | Print | Product List | Glossary On
Versions: 1 2 3 4 5 6 7 8 9 10 11 12 13 14 15 16 17 18 19 20 21 22 23 24 25 26 27 28 29 30 31 32 33 34 35 36 37 38 39 40 41 42 43 44 45 46 47 48 49 50
000
ASUS43 KIWX 261000
RWRIWX

KIWX WEATHER ROUNDUP
NATIONAL WEATHER SERVICE NORTHERN INDIANA
600 AM EDT TUE MAY 26 2015

NOTE: "FAIR" INDICATES FEW OR NO CLOUDS BELOW 12,000 FEET WITH NO
SIGNIFICANT WEATHER AND/OR OBSTRUCTIONS TO VISIBILITY.

* THESE STATIONS ARE NOT UNDER NWS QUALITY CONTROL. THEY ALSO MAY NOT
  REPORT WEATHER SUCH AS PRECIPITATION OR FOG.

INZ001>027-261100-
NORTHERN INDIANA

CITY           SKY/WX    TMP DP  RH WIND       PRES   REMARKS
GARY*          MOCLDY    68  66  94 S13       29.96R
SOUTH BEND     CLOUDY    67  64  90 S7        30.00R
GOSHEN         CLOUDY    65  63  93 S7        30.01R
ANGOLA*        MOCLDY    63  63 100 S5        30.03F
FORT WAYNE     PTCLDY    62  60  93 S7        30.04F
PERU/GRISSOM   CLOUDY    65  64  94 S16G23    30.02R

$$
INZ028>050-261100-
CENTRAL INDIANA

CITY           SKY/WX    TMP DP  RH WIND       PRES   REMARKS
LAFAYETTE      CLOUDY    66  64  93 S6        30.01R
KOKOMO*        CLOUDY    66  63  88 S15       30.04R
MUNCIE*        CLOUDY    68  64  87 S13G21    30.06R
INDIANAPOLIS   CLOUDY    67  64  90 S7        30.03S

$$
MIZ043>046-050>051-056>058-064>065-071>073-077>080-261100-
SOUTHWEST LOWER MICHIGAN

CITY           SKY/WX    TMP DP  RH WIND       PRES   REMARKS
BATTLE CREEK   CLOUDY    66  63  90 S7        30.02S
BENTON HARBOR  PTCLDY    65  63  93 S8        29.97S
COLDWATER*     CLOUDY    65  63  93 S5        30.03S
HILLSDALE*     CLOUDY    65  65 100 S6        30.05S
HOLLAND        PTCLDY    64  62  93 S5        29.98R
GRAND RAPIDS   MOCLDY    65  63  93 S9        29.98S
KALAMAZOO      CLOUDY    67  63  87 S8        30.01S
STURGIS*       CLOUDY    64  63  94 S8        30.02S
THREE RIVERS*  CLOUDY    66  63  89 S6        30.02S

$$
OHZ001>008-015>018-024>025-261100-
NORTHWEST OHIO

CITY           SKY/WX    TMP DP  RH WIND       PRES   REMARKS
DEFIANCE       CLEAR     63  61  93 S3        30.06R
FINDLAY        MOCLDY    68  63  84 S10       30.06S
TOLEDO EXPRESS CLEAR     63  62  97 SW5       30.06R
TOLEDO METCALF MOCLDY    66  61  84 S6        30.07R
LIMA           MOCLDY    67  63  87 S7        30.08R

$$
AND FOR LAKE MICHIGAN COASTAL AND OPEN LAKE BUOY OBSERVATIONS

STATION/POSITION TEMP    WIND        PRES    VSBY  WAVE
                 AIR SEA DIR/SP/G                  HT/PER
                 (F)     (DEG/KT/KT) (MB)    (MI)  (FT/S)
CALUMET HARBOR    67     170/ 10/ 12   N/A
MICHIGAN CITY     67     140/  8/ 12   N/A
BURNS HARBOR      67     180/ 11/ 16 1015.2R
SAINT JOSEPH      67     140/  4/  9 1015.2R
SOUTH LAKE BUOY   46 38  180/ 12/ 14 1014.1F         1/ 3
4 MI NW BRIDGMAN  61 54  190/ 10/ 10   N/A           1/ 2
MICHIGAN CITY     61 52  180/  8/ 10   N/A           1

$$
&&



USA.gov is the U.S. government's official web portal to all federal, state and local government web resources and services.